[[{"header":{"parameterUnit":"m.s-1","parameterCategory":2,"la1":30.2991,"la2":30.254,"lo1":-89.0895,"lo2":-89.0444,"dy":0.0017,"dx":0.0017,"nx":28,"ny":28,"refTime":"2025-03-22T03:00:00:Z","depth":"0","parameterNumber":2,"parameterNumberName":"U-component_of_CURRENTS"},"data":[0,0,0,0,0,0,0,0,0,0,0,0,0,0,0,0,0,0,0,0,0,0,0,0,0,0,0,0,0,0,0,0,0,0,0,0,0,0,0,0,0,0,0,0,0,0,0,0,0,0,0,0,0,0,0,0,0,0,0.3538,0.3538,0,0.3545,0.3544,0.3544,0.3543,0.3543,0.3544,0.3544,0.3523,0.3522,0.3521,0,0,0,0,0,0,0,0,0,0,0,0,0,0.3435,0.3437,0.3538,0.3538,0.3539,0.3545,0.3544,0.3544,0.3543,0.3544,0.3544,0.3544,0.3523,0.3522,0.3521,0,0,0,0,0,0,0,0,0,0,0,0,0,0.346,0.3438,0.3538,0.3543,0.3543,0.3545,0.3544,0.3544,0.3543,0.3544,0.3544,0.3544,0.3523,0.3522,0.3521,0.3503,0,0,0.3517,0.3516,0,0,0,0,0,0,0,0,0.3459,0.3463,0.3541,0.3542,0.3543,0.3548,0.3501,0.353,0.3543,0.3538,0.3544,0.3545,0.3531,0.3529,0.3523,0.3502,0.3501,0.3516,0.3516,0.3515,0.3515,0,0,0,0,0,0,0,0.3457,0.3463,0.3536,0.3542,0.3543,0.3514,0.3519,0.3505,0.3528,0.3539,0.354,0.3548,0.3531,0.3524,0.3522,0.3501,0.3516,0.3515,0.3515,0.3514,0.3554,0.3556,0,0,0,0,0,0,0.3471,0.3462,0.3536,0.3536,0.3507,0.3517,0.3521,0.3542,0.3528,0.3528,0.3548,0.3548,0.3526,0.3524,0.3522,0.3565,0.3515,0.3514,0.3513,0.3552,0.3555,0.3557,0,0,0,0,0,0,0.3469,0.3478,0.3535,0.3502,0.3508,0.3519,0.3541,0.3542,0.3544,0.3536,0.3535,0.3551,0.3527,0.3524,0.3534,0.3562,0.3513,0.3512,0.355,0.3553,0.3556,0.361,0,0,0,0,0,0,0.3466,0.3477,0.3491,0.3503,0.3511,0.3545,0.3542,0.3542,0.355,0.3551,0.3538,0.3537,0.3527,0.3536,0.3533,0.3559,0.3511,0.3548,0.3551,0.3555,0.3606,0.3614,0.3621,0,0,0,0,0,0.3462,0.3471,0.3492,0.3501,0.3532,0.3546,0.3546,0.3551,0.355,0.3553,0.3557,0.3537,0.3556,0.3536,0.3531,0.3558,0.3546,0.355,0.3554,0.3602,0.3613,0.3621,0,0,0,0,0,0,0.3405,0.3473,0.3495,0.3519,0.3541,0.3548,0.3547,0.3554,0.3557,0.3558,0.3549,0.3547,0.3574,0.3558,0.3536,0.3585,0.3553,0.3556,0.3591,0.36,0.3608,0.3588,0.351,0,0,0,0,0,0.341,0.3452,0.3494,0.3509,0.3524,0.3538,0.3543,0.3553,0.356,0.3561,0.3561,0.3567,0.3586,0.3586,0.3594,0.3603,0.3601,0.3624,0.3631,0.3638,0.3623,0.3675,0.3685,0.357,0.357,0.357,0,0,0.3386,0.3433,0.345,0.3503,0.3516,0.3538,0.3541,0.3553,0.3571,0.3558,0.3576,0.3591,0.3597,0.3625,0.3635,0.3613,0.3671,0.3643,0.3649,0.3629,0.368,0.3691,0.3701,0.3573,0.3573,0.3572,0,0,0.3358,0.3408,0.3434,0.3465,0.3509,0.3529,0.3539,0.3563,0.3577,0.36,0.3612,0.3643,0.365,0.3672,0.3681,0.3732,0.3717,0.3742,0.3755,0.3807,0.3816,0.3825,0.3837,0.3846,0.3739,0.374,0.374,0,0.3322,0.3375,0.3434,0.3465,0.3488,0.353,0.3546,0.3569,0.3595,0.361,0.3614,0.3668,0.3674,0.372,0.3744,0.3748,0.3761,0.3717,0.3816,0.3824,0.3832,0.3843,0.3852,0.3743,0.3742,0.3742,0.3742,0,0.3318,0.3363,0.3373,0.3448,0.3479,0.3496,0.3554,0.3585,0.3614,0.3637,0.3691,0.3717,0.3747,0.377,0.3767,0.3831,0.3818,0.3826,0.3788,0.3846,0.3854,0.3863,0.3747,0.3746,0.3745,0.3744,0,0,0.3221,0.3348,0.3348,0.3388,0.3475,0.3491,0.355,0.3604,0.3646,0.3681,0.3734,0.3774,0.3793,0.3805,0.3827,0.3866,0.3935,0.3864,0.3865,0.3867,0.4028,0.3934,0.3934,0.3968,0.397,0.3972,0.4011,0,0.3192,0.3246,0.3325,0.3368,0.3401,0.3485,0.3538,0.3598,0.3662,0.373,0.3772,0.3833,0.3807,0.3849,0.3879,0.3942,0.396,0.3921,0.3977,0.3978,0.3881,0.3942,0.3834,0.3854,0.4019,0.4021,0.4022,0,0.3157,0.3209,0.3246,0.3358,0.3378,0.3412,0.3518,0.3576,0.3691,0.3751,0.3816,0.3865,0.3934,0.3919,0.3998,0.3978,0.3989,0.4019,0.4022,0.3915,0.39,0.3824,0.3862,0.3823,0.4034,0.4033,0.4032,0,0.3057,0.315,0.3179,0.3212,0.334,0.3373,0.344,0.3561,0.3639,0.3776,0.3854,0.3927,0.3991,0.4029,0.4064,0.4052,0.4148,0.4145,0.4055,0.4048,0.3952,0.3932,0.3946,0.4179,0.4179,0.4179,0.4179,0,0.3005,0.3028,0.3132,0.3148,0.3197,0.3305,0.3385,0.3481,0.3638,0.3729,0.3846,0.3933,0.4027,0.4088,0.4098,0.4094,0.4169,0.4054,0.4059,0.3966,0.3949,0.3904,0.3879,0.418,0.418,0.418,0.4179,0,0.2909,0.2975,0.3016,0.3122,0.3157,0.3188,0.3358,0.3433,0.3589,0.3726,0.378,0.3959,0.4036,0.4093,0.4176,0.4131,0.4052,0.4122,0.3982,0.3967,0.3817,0.3798,0.362,0.3522,0.4033,0.4031,0.4029,0,0.2874,0.2882,0.2968,0.2997,0.3047,0.3127,0.3202,0.3384,0.3485,0.3722,0.3781,0.392,0.3981,0.4062,0.4049,0.4043,0.3965,0.3921,0.3863,0.3787,0.3773,0.3628,0.3549,0.3767,0.3763,0.376,0.3758,0,0.2809,0.2827,0.2861,0.2916,0.2975,0.3058,0.3174,0.325,0.3464,0.356,0.3691,0.3762,0.3874,0.384,0.3856,0.3843,0.3763,0.3854,0.3838,0.3603,0.3385,0.33,0.3744,0.3731,0.3734,0.3736,0.3737,0.3738,0.275,0.2745,0.2784,0.2827,0.2898,0.2964,0.2972,0.3104,0.3199,0.3315,0.3492,0.3531,0.3667,0.3676,0.3639,0.3572,0.3531,0.3504,0.35,0.337,0.3221,0.357,0.3521,0.3522,0.3523,0.3524,0.3525,0,0.267,0.2672,0.2707,0.2738,0.2757,0.2837,0.2932,0.2908,0.2914,0.3087,0.3143,0.326,0.3275,0.337,0.3393,0.3284,0.3134,0.3213,0.3035,0.2986,0.3378,0.3316,0.3143,0.3143,0.3144,0.3144,0.3144,0.3144,0.2627,0.2602,0.2608,0.2582,0.2602,0.2565,0.2568,0.2544,0.2617,0.2647,0.2709,0.283,0.3133,0.3282,0.3235,0.3146,0.2949,0.2781,0.2776,0.314,0.3169,0.3196,0.3135,0.2927,0.2926,0.2282,0.2278,0.2274]},{"header":{"parameterUnit":"m.s-1","parameterCategory":2,"la1":30.2991,"la2":30.254,"lo1":-89.0895,"lo2":-89.0444,"dy":0.0017,"dx":0.0017,"nx":28,"ny":28,"refTime":"2025-03-22T03:00:00:Z","depth":"0","parameterNumber":3,"parameterNumberName":"V-component_of_CURRENTS"},"data":[0,0,0,0,0,0,0,0,0,0,0,0,0,0,0,0,0,0,0,0,0,0,0,0,0,0,0,0,0,0,0,0,0,0,0,0,0,0,0,0,0,0,0,0,0,0,0,0,0,0,0,0,0,0,0,0,0,0,0.0236,0.0235,0,0.0171,0.017,0.0169,0.0132,0.0132,0.0132,0.0132,0.0066,0.0065,0.0063,0,0,0,0,0,0,0,0,0,0,0,0,0,0.0282,0.0281,0.0236,0.0235,0.0234,0.0171,0.017,0.0169,0.0132,0.0132,0.0132,0.0132,0.0067,0.0065,0.0063,0,0,0,0,0,0,0,0,0,0,0,0,0,0.0243,0.0281,0.0236,0.0209,0.0206,0.0171,0.017,0.0169,0.0132,0.0132,0.0132,0.0132,0.0067,0.0065,0.0062,0.0049,0,0,0.0055,0.0054,0,0,0,0,0,0,0,0,0.0246,0.0242,0.0213,0.0211,0.0207,0.016,0.0162,0.0129,0.0132,0.0159,0.0132,0.0132,0.0098,0.0093,0.008,0.0046,0.0043,0.0055,0.0053,0.0052,0.0051,0,0,0,0,0,0,0,0.0248,0.0244,0.021,0.0213,0.0209,0.0184,0.0179,0.0156,0.013,0.0157,0.0154,0.0148,0.0096,0.0083,0.0078,0.0042,0.0055,0.0052,0.0051,0.005,0.0009,0.0009,0,0,0,0,0,0,0.026,0.0247,0.0212,0.0208,0.0227,0.0184,0.0178,0.0175,0.013,0.0123,0.0148,0.0147,0.0087,0.0081,0.0076,0.0085,0.0052,0.005,0.0048,0.0008,0.0009,0.0009,0,0,0,0,0,0,0.0262,0.0258,0.0214,0.0226,0.0219,0.0183,0.018,0.0174,0.0164,0.0123,0.0116,0.0146,0.0087,0.0079,0.0064,0.0081,0.0049,0.0046,0.0008,0.0009,0.0009,0.0086,0,0,0,0,0,0,0.0263,0.0259,0.0263,0.0227,0.0219,0.0205,0.018,0.0172,0.0161,0.0158,0.0119,0.0113,0.0086,0.0068,0.0061,0.0077,0.0044,0.0007,0.0008,0.0009,0.0083,0.009,0.0095,0,0,0,0,0,0.0265,0.0278,0.0264,0.026,0.0225,0.0206,0.02,0.0173,0.0161,0.0163,0.0136,0.0114,0.0068,0.0066,0.0058,0.0074,0.0007,0.0008,0.0009,0.0081,0.0088,0.0095,0,0,0,0,0,0,0.0307,0.0275,0.0258,0.0263,0.0239,0.02,0.0201,0.0179,0.0158,0.0158,0.0118,0.011,0.0101,0.0075,0.0074,0.0064,0.0034,0.0034,0.0092,0.0098,0.0104,0.013,0.0042,0,0,0,0,0,0.0317,0.0316,0.028,0.0285,0.0275,0.0238,0.0227,0.0209,0.0184,0.0174,0.0144,0.0117,0.0097,0.0089,0.0063,0.006,0.0035,0.0064,0.007,0.0075,0.009,0.0072,0.0078,0.0013,0.0013,0.0013,0,0,0.0335,0.0317,0.0317,0.0293,0.0272,0.0273,0.0232,0.0223,0.0229,0.0171,0.017,0.0133,0.0099,0.0094,0.0088,0.0077,0.0078,0.0077,0.0081,0.0094,0.0074,0.008,0.0086,0.0013,0.0013,0.0013,0,0,0.0375,0.0355,0.0367,0.0352,0.0327,0.0305,0.0306,0.0269,0.0259,0.0246,0.021,0.0187,0.0151,0.0135,0.0122,0.0144,0.0105,0.0133,0.0189,0.0171,0.0177,0.0182,0.0149,0.015,0.0141,0.0141,0.0141,0,0.0397,0.0408,0.0369,0.0377,0.0376,0.0325,0.0344,0.0326,0.0289,0.029,0.0258,0.0212,0.0174,0.0182,0.0185,0.016,0.0137,0.0168,0.0181,0.0185,0.0188,0.0153,0.0154,0.0145,0.0144,0.0144,0.0144,0,0.0444,0.0452,0.046,0.0454,0.0447,0.0454,0.0425,0.0419,0.0393,0.0371,0.0359,0.0302,0.0278,0.0259,0.0227,0.0239,0.021,0.0187,0.0168,0.02,0.016,0.0159,0.015,0.0149,0.0148,0.0147,0,0,0.049,0.0493,0.0496,0.0512,0.049,0.0494,0.0506,0.0505,0.053,0.0474,0.0496,0.0439,0.0399,0.0381,0.0334,0.0316,0.0305,0.0269,0.0266,0.0245,0.0257,0.0218,0.0212,0.0287,0.0288,0.0288,0.0216,0,0.0538,0.0581,0.0565,0.0609,0.0629,0.0597,0.0617,0.0609,0.0594,0.0601,0.0539,0.0536,0.045,0.0445,0.0407,0.0339,0.0308,0.0326,0.0222,0.0218,0.0187,0.0212,0.0231,0.0167,0.0215,0.0215,0.0214,0,0.0585,0.061,0.0662,0.0694,0.0701,0.0717,0.0749,0.0765,0.0758,0.0749,0.0723,0.067,0.0631,0.0555,0.0444,0.046,0.0366,0.0301,0.0296,0.0237,0.0178,0.0144,0.0163,0.0018,0.0212,0.0213,0.0213,0,0.0638,0.0679,0.0728,0.0736,0.0759,0.0781,0.0799,0.0807,0.0855,0.0853,0.0884,0.0801,0.0783,0.0657,0.0494,0.0478,0.0368,0.0328,0.02,0.0195,0.018,0.0173,0.0058,0.0253,0.0253,0.0254,0.0254,0,0.0691,0.073,0.0757,0.0783,0.0853,0.0846,0.093,0.0933,0.0979,0.1058,0.0967,0.1004,0.0811,0.0715,0.0546,0.0369,0.04,0.0219,0.0182,0.0204,0.0201,0.0047,-0.006,0.0251,0.0251,0.0252,0.0252,0,0.0732,0.0749,0.0812,0.0857,0.0877,0.0929,0.1025,0.11,0.1121,0.1223,0.1235,0.1169,0.1039,0.0824,0.0624,0.0455,0.0185,0.0206,0.0233,0.0201,-0.0053,-0.0157,-0.0328,-0.0399,0.0064,0.0063,0.0062,0,0.0755,0.079,0.087,0.0924,0.0945,0.1031,0.1106,0.1163,0.1262,0.1332,0.1397,0.13,0.1248,0.0919,0.0605,0.0302,0.014,0.0123,0.0093,-0.0057,-0.0199,-0.0263,-0.0314,0.0094,0.0093,0.0093,0.0092,0,0.0799,0.0827,0.0882,0.0997,0.1082,0.1203,0.1316,0.1419,0.1507,0.1581,0.1649,0.1609,0.1294,0.0992,0.057,0.0358,0.0016,0.0101,-0.005,-0.0181,-0.0259,-0.0348,0.0113,0.0087,0.0087,0.0088,0.0088,0.0088,0.0829,0.0883,0.0966,0.1076,0.1193,0.1357,0.1474,0.1603,0.1753,0.1883,0.1835,0.1812,0.1385,0.081,0.0492,-0.0031,-0.0051,-0.0176,-0.0289,-0.0337,-0.0407,0.0032,-0.0039,-0.004,-0.004,-0.004,-0.004,0,0.0865,0.0936,0.1045,0.1189,0.1337,0.1389,0.1606,0.1731,0.1901,0.2018,0.2056,0.1856,0.131,0.0782,0.0058,-0.0324,-0.045,-0.0538,-0.0613,-0.0647,-0.0242,-0.0239,-0.036,-0.036,-0.036,-0.036,-0.036,-0.036,0.0887,0.0988,0.1051,0.1282,0.1399,0.1607,0.174,0.1902,0.2036,0.2181,0.22,0.2188,0.1789,0.041,-0.0456,-0.0658,-0.0915,-0.1004,-0.1134,-0.0852,-0.0825,-0.08,-0.082,-0.1061,-0.1062,-0.145,-0.1455,-0.1458]}],[{"header":{"parameterUnit":"m.s-1","parameterCategory":2,"la1":30.2991,"la2":30.254,"lo1":-89.0895,"lo2":-89.0444,"dy":0.0017,"dx":0.0017,"nx":28,"ny":28,"refTime":"2025-03-22T03:00:00:Z","depth":"2","parameterNumber":2,"parameterNumberName":"U-component_of_CURRENTS"},"data":[0,0,0,0,0,0,0,0,0,0,0,0,0,0,0,0,0,0,0,0,0,0,0,0,0,0,0,0,0,0,0,0,0,0,0,0,0,0,0,0,0,0,0,0,0,0,0,0,0,0,0,0,0,0,0,0,0,0,0.297,0.2971,0,0.3003,0.3003,0.3004,0.3023,0.3023,0.3023,0.3023,0.3054,0.3054,0.3055,0,0,0,0,0,0,0,0,0,0,0,0,0,0.2902,0.2904,0.297,0.2971,0.2971,0.3003,0.3003,0.3004,0.3023,0.3023,0.3023,0.3024,0.3054,0.3054,0.3055,0,0,0,0,0,0,0,0,0,0,0,0,0,0.2931,0.2904,0.297,0.2986,0.2988,0.3003,0.3003,0.3004,0.3023,0.3023,0.3023,0.3024,0.3053,0.3054,0.3055,0.3051,0,0,0.3057,0.3058,0,0,0,0,0,0,0,0,0.2929,0.2933,0.2983,0.2985,0.2988,0.3011,0.2991,0.302,0.3022,0.3007,0.3024,0.3024,0.3041,0.3042,0.3044,0.3053,0.3054,0.3058,0.3058,0.3058,0.3059,0,0,0,0,0,0,0,0.2927,0.2932,0.2981,0.2984,0.2987,0.2985,0.299,0.2996,0.3019,0.3008,0.301,0.3018,0.3041,0.3044,0.3045,0.3054,0.3057,0.3058,0.3059,0.3059,0.3141,0.3143,0,0,0,0,0,0,0.2929,0.293,0.298,0.2982,0.2962,0.2986,0.2991,0.3001,0.3019,0.3023,0.3017,0.3019,0.3042,0.3044,0.3046,0.3098,0.3058,0.3059,0.306,0.3139,0.3141,0.3143,0,0,0,0,0,0,0.2927,0.2933,0.2979,0.2958,0.2965,0.2987,0.2998,0.3002,0.3023,0.3026,0.303,0.3037,0.3042,0.3045,0.3076,0.3098,0.3059,0.306,0.3137,0.314,0.3142,0.3167,0,0,0,0,0,0,0.2925,0.2932,0.2941,0.2959,0.2966,0.3008,0.2998,0.3002,0.3026,0.3029,0.3044,0.3046,0.3043,0.3075,0.3077,0.3098,0.3061,0.3135,0.3138,0.3141,0.3164,0.317,0.3175,0,0,0,0,0,0.2923,0.2927,0.2942,0.2948,0.2977,0.3009,0.3013,0.3028,0.3027,0.3046,0.3057,0.3047,0.3097,0.3077,0.3079,0.3101,0.3134,0.3137,0.3141,0.3162,0.3169,0.3175,0,0,0,0,0,0,0.2892,0.293,0.2946,0.296,0.2996,0.3014,0.3028,0.3039,0.306,0.3065,0.3062,0.3066,0.3113,0.3103,0.3081,0.3137,0.3116,0.312,0.3131,0.3138,0.3143,0.3162,0.3061,0,0,0,0,0,0.2894,0.2916,0.2952,0.2968,0.2987,0.3012,0.3026,0.3044,0.3064,0.3074,0.3081,0.3097,0.3126,0.3129,0.3156,0.3169,0.318,0.3189,0.3195,0.3199,0.3219,0.3259,0.3269,0.3156,0.3156,0.3156,0,0,0.2884,0.2911,0.2922,0.2965,0.2991,0.3019,0.3022,0.3057,0.3078,0.3074,0.31,0.3127,0.3142,0.3175,0.3192,0.3165,0.3235,0.3204,0.3208,0.3225,0.3264,0.3275,0.3285,0.3158,0.3158,0.3157,0,0,0.2877,0.2908,0.2924,0.2959,0.301,0.3033,0.3049,0.3083,0.31,0.3139,0.3147,0.3189,0.3211,0.3229,0.324,0.3292,0.3281,0.3295,0.3315,0.3353,0.3362,0.3371,0.3382,0.3392,0.3276,0.3276,0.3276,0,0.2863,0.2893,0.2934,0.2963,0.299,0.3042,0.3067,0.3094,0.3132,0.315,0.3159,0.3232,0.3245,0.3286,0.3308,0.3305,0.3314,0.3281,0.3359,0.3368,0.3376,0.3386,0.3396,0.3277,0.3277,0.3277,0.3277,0,0.2868,0.29,0.2916,0.2973,0.3009,0.3045,0.3094,0.3127,0.3161,0.3191,0.3261,0.3292,0.3333,0.3344,0.3343,0.3402,0.3385,0.3376,0.3337,0.3389,0.3396,0.3406,0.328,0.3279,0.3279,0.3278,0,0,0.2813,0.2901,0.2905,0.2933,0.3021,0.3041,0.3097,0.3155,0.3196,0.3248,0.3301,0.3362,0.3392,0.3409,0.3414,0.3443,0.3504,0.343,0.3431,0.3433,0.3571,0.349,0.3492,0.3502,0.3505,0.3506,0.3546,0,0.2807,0.2846,0.2901,0.2947,0.2976,0.3048,0.3101,0.3162,0.3227,0.3293,0.3348,0.3418,0.3409,0.3445,0.3474,0.3521,0.3535,0.3494,0.353,0.3531,0.3445,0.3504,0.3242,0.325,0.3555,0.3557,0.3558,0,0.2788,0.2823,0.286,0.2944,0.2965,0.3004,0.3099,0.3156,0.3269,0.3328,0.3405,0.3459,0.3532,0.3521,0.3601,0.3573,0.3577,0.3596,0.3597,0.3525,0.3469,0.3253,0.3256,0.3575,0.3573,0.3572,0.3571,0,0.2716,0.2789,0.2815,0.2843,0.2949,0.298,0.3047,0.3162,0.3233,0.336,0.3435,0.3519,0.3588,0.3622,0.3659,0.364,0.3738,0.371,0.3631,0.3624,0.3413,0.3383,0.3757,0.3757,0.3757,0.3757,0.3757,0,0.2685,0.2704,0.2782,0.2796,0.2848,0.2939,0.3019,0.3106,0.3254,0.3343,0.3448,0.3521,0.3624,0.3683,0.3689,0.3695,0.3756,0.3657,0.3641,0.3412,0.3383,0.3677,0.3667,0.3758,0.3758,0.3758,0.3757,0,0.2614,0.2665,0.2695,0.2785,0.2818,0.2855,0.3005,0.3074,0.3223,0.3347,0.3398,0.3556,0.3633,0.3697,0.3769,0.3732,0.3747,0.3718,0.3434,0.3384,0.3595,0.3586,0.365,0.3647,0.3645,0.3644,0.3642,0,0.2585,0.2592,0.2663,0.2687,0.2731,0.2807,0.2879,0.3043,0.313,0.334,0.3394,0.3529,0.3579,0.366,0.3638,0.3635,0.37,0.3378,0.3301,0.3613,0.3591,0.3585,0.3579,0.3021,0.3015,0.301,0.3006,0,0.2531,0.2552,0.2574,0.2622,0.2677,0.274,0.2848,0.2901,0.3095,0.3192,0.3299,0.3359,0.3463,0.3353,0.3382,0.3338,0.3365,0.3272,0.3682,0.3094,0.3025,0.3002,0.3016,0.2959,0.2964,0.2967,0.297,0.2972,0.2485,0.2481,0.2508,0.2545,0.2603,0.2641,0.2642,0.2754,0.2837,0.294,0.3089,0.3089,0.3151,0.3052,0.296,0.2898,0.3126,0.2989,0.3003,0.3023,0.2949,0.288,0.2773,0.2776,0.2779,0.2781,0.2784,0,0.2415,0.2416,0.2438,0.2458,0.2459,0.2536,0.2598,0.2565,0.2568,0.2701,0.2757,0.2561,0.2516,0.2566,0.2409,0.2421,0.2378,0.2319,0.2239,0.2289,0.2333,0.222,0.1852,0.1848,0.1845,0.1842,0,0,0.2376,0.2346,0.2345,0.2301,0.2315,0.2274,0.2261,0.2229,0.2269,0.222,0.2213,0.2416,0.2509,0.2145,0.2113,0.1951,0.2096,0.1875,0.2633,0.2591,0.263,0.2742,0.2629,0,0,0,0,0]},{"header":{"parameterUnit":"m.s-1","parameterCategory":2,"la1":30.2991,"la2":30.254,"lo1":-89.0895,"lo2":-89.0444,"dy":0.0017,"dx":0.0017,"nx":28,"ny":28,"refTime":"2025-03-22T03:00:00:Z","depth":"2","parameterNumber":3,"parameterNumberName":"V-component_of_CURRENTS"},"data":[0,0,0,0,0,0,0,0,0,0,0,0,0,0,0,0,0,0,0,0,0,0,0,0,0,0,0,0,0,0,0,0,0,0,0,0,0,0,0,0,0,0,0,0,0,0,0,0,0,0,0,0,0,0,0,0,0,0,0.0165,0.0165,0,0.0107,0.0107,0.0106,0.0071,0.0071,0.0071,0.0071,0.0011,0.001,0.0009,0,0,0,0,0,0,0,0,0,0,0,0,0,0.021,0.0209,0.0165,0.0165,0.0164,0.0108,0.0107,0.0106,0.0071,0.0071,0.0071,0.0071,0.0012,0.001,0.0008,0,0,0,0,0,0,0,0,0,0,0,0,0,0.0175,0.0209,0.0165,0.014,0.0137,0.0108,0.0107,0.0106,0.0071,0.0071,0.0071,0.0071,0.0013,0.001,0.0008,-0.0002,0,0,0.0002,0.0001,0,0,0,0,0,0,0,0,0.0177,0.0173,0.0144,0.0142,0.0139,0.0097,0.0101,0.007,0.0071,0.0096,0.0071,0.0071,0.004,0.0036,0.0025,-0.0005,-0.0007,0.0001,-0.0,-0.0001,-0.0002,0,0,0,0,0,0,0,0.0179,0.0175,0.0142,0.0144,0.014,0.012,0.0115,0.0094,0.0069,0.0094,0.0091,0.0086,0.0039,0.0027,0.0023,-0.0008,0.0001,-0.0001,-0.0002,-0.0003,-0.0038,-0.0038,0,0,0,0,0,0,0.0189,0.0178,0.0144,0.014,0.0158,0.0119,0.0114,0.011,0.0069,0.0063,0.0086,0.0084,0.0031,0.0026,0.0021,0.0029,-0.0001,-0.0003,-0.0004,-0.0039,-0.0038,-0.0038,0,0,0,0,0,0,0.0191,0.0187,0.0146,0.0158,0.0151,0.0119,0.0115,0.0109,0.0101,0.0064,0.0057,0.0085,0.003,0.0024,0.0011,0.0026,-0.0004,-0.0006,-0.0039,-0.0039,-0.0038,0.0031,0,0,0,0,0,0,0.0192,0.0188,0.0192,0.0159,0.0151,0.014,0.0115,0.0108,0.0098,0.0096,0.0061,0.0055,0.003,0.0015,0.0009,0.0022,-0.0008,-0.004,-0.0039,-0.0038,0.0028,0.0034,0.0039,0,0,0,0,0,0.0194,0.0205,0.0192,0.0188,0.0156,0.014,0.0135,0.011,0.0099,0.0101,0.0077,0.0056,0.0015,0.0013,0.0006,0.0019,-0.004,-0.0039,-0.0038,0.0026,0.0033,0.0039,0,0,0,0,0,0,0.0233,0.0201,0.0187,0.0189,0.017,0.0135,0.0136,0.0117,0.0099,0.0099,0.0061,0.0053,0.0046,0.0022,0.0022,0.001,-0.0016,-0.0017,0.0035,0.0041,0.0046,0.0072,-0.001,0,0,0,0,0,0.0242,0.0239,0.0206,0.0211,0.0202,0.0169,0.016,0.0145,0.0122,0.0114,0.0087,0.0061,0.0043,0.0035,0.0013,0.0008,-0.0017,0.0011,0.0017,0.0021,0.0037,0.001,0.0015,-0.0035,-0.0035,-0.0035,0,0,0.0259,0.0242,0.0241,0.0219,0.0201,0.0203,0.0164,0.0158,0.0165,0.0111,0.0111,0.0078,0.0045,0.004,0.0035,0.0024,0.002,0.0022,0.0027,0.004,0.0012,0.0017,0.0021,-0.0035,-0.0035,-0.0035,0,0,0.0297,0.0277,0.0287,0.0274,0.0253,0.0233,0.0235,0.0202,0.0193,0.0183,0.0149,0.0128,0.0096,0.0079,0.0066,0.0087,0.0047,0.0075,0.0126,0.01,0.0104,0.0107,0.0074,0.0074,0.008,0.008,0.008,0,0.0319,0.0327,0.029,0.0298,0.0297,0.0253,0.027,0.0254,0.0223,0.0223,0.0195,0.0151,0.0118,0.0121,0.0125,0.0101,0.0076,0.0107,0.0108,0.0111,0.0113,0.0078,0.0078,0.0084,0.0083,0.0083,0.0083,0,0.0362,0.0369,0.0377,0.0371,0.0366,0.0374,0.0347,0.0342,0.0318,0.0299,0.0287,0.0235,0.0212,0.0193,0.0165,0.0169,0.0141,0.0117,0.0096,0.0123,0.0084,0.0082,0.0089,0.0087,0.0086,0.0085,0,0,0.0409,0.0408,0.0411,0.0425,0.0407,0.0411,0.0421,0.042,0.0441,0.0391,0.0408,0.0358,0.0322,0.0305,0.026,0.0234,0.0217,0.0189,0.0186,0.0164,0.0155,0.0125,0.0119,0.0192,0.0192,0.0192,0.0119,0,0.0455,0.0494,0.0477,0.0519,0.0536,0.0506,0.0524,0.0517,0.0501,0.0505,0.0445,0.0441,0.0368,0.036,0.0321,0.025,0.0216,0.024,0.0126,0.0123,0.0099,0.0117,0.0128,0.0063,0.0116,0.0116,0.0115,0,0.0501,0.0522,0.057,0.0598,0.0604,0.062,0.0646,0.0661,0.065,0.064,0.0613,0.0562,0.0519,0.0452,0.0339,0.0357,0.0267,0.0199,0.0194,0.0145,0.0089,0.0045,0.0056,0.0111,0.0112,0.0112,0.0112,0,0.0552,0.0588,0.0633,0.0641,0.0661,0.0681,0.0697,0.0702,0.0745,0.0732,0.0755,0.0674,0.0653,0.053,0.0374,0.0361,0.0244,0.0206,0.0091,0.0087,0.0065,0.0059,0.0129,0.0129,0.0129,0.0129,0.0129,0,0.0604,0.0639,0.0662,0.0686,0.0752,0.0744,0.0819,0.0822,0.086,0.0928,0.0835,0.0856,0.0674,0.0575,0.0416,0.0249,0.027,0.0109,0.0072,0.0087,0.0084,0.0103,0.0101,0.0126,0.0127,0.0127,0.0128,0,0.0646,0.0659,0.0717,0.0757,0.0776,0.0826,0.0912,0.0978,0.0992,0.1078,0.1082,0.1007,0.0873,0.0672,0.0472,0.0322,0.0152,0.0083,0.0108,0.0075,-0.0,0.0002,-0.0042,-0.0044,-0.0045,-0.0046,-0.0047,0,0.0667,0.07,0.0774,0.0825,0.0845,0.0923,0.0993,0.1041,0.113,0.1172,0.1228,0.1119,0.1057,0.0741,0.0451,0.017,0.0136,0.0001,-0.0022,0.0017,-0.0015,-0.001,-0.0006,-0.0033,-0.0033,-0.0034,-0.0034,0,0.0711,0.0738,0.0788,0.0897,0.0977,0.1086,0.119,0.1277,0.1348,0.1405,0.1446,0.1391,0.1091,0.0794,0.0406,0.0217,0.0044,-0.002,0.0021,0.0012,0.0022,-0.0008,-0.0004,-0.004,-0.0039,-0.0039,-0.0038,-0.0038,0.0742,0.0792,0.0869,0.0974,0.1081,0.1229,0.1334,0.1444,0.157,0.1663,0.1604,0.1525,0.1189,0.0688,0.0345,-0.0006,0.0019,-0.0105,-0.0101,-0.0097,-0.0079,-0.0072,-0.0148,-0.0149,-0.0149,-0.0149,-0.0149,0,0.0778,0.0845,0.0945,0.108,0.1213,0.1266,0.1458,0.156,0.1698,0.1761,0.1777,0.1448,0.1103,0.0721,0.0195,-0.0111,-0.0128,-0.0208,-0.0166,-0.0159,-0.0152,-0.0136,-0.0222,-0.0223,-0.0224,-0.0225,0,0,0.0799,0.0893,0.0951,0.1162,0.1273,0.1467,0.1583,0.1711,0.1796,0.184,0.1795,0.1703,0.122,0.0828,0.0391,0.0084,0.0045,0.003,0.0121,0.023,0.024,-0.0064,-0.0027,0,0,0,0,0]}],[{"header":{"parameterUnit":"m.s-1","parameterCategory":2,"la1":30.2991,"la2":30.254,"lo1":-89.0895,"lo2":-89.0444,"dy":0.0017,"dx":0.0017,"nx":28,"ny":28,"refTime":"2025-03-22T03:00:00:Z","depth":"4","parameterNumber":2,"parameterNumberName":"U-component_of_CURRENTS"},"data":[0,0,0,0,0,0,0,0,0,0,0,0,0,0,0,0,0,0,0,0,0,0,0,0,0,0,0,0,0,0,0,0,0,0,0,0,0,0,0,0,0,0,0,0,0,0,0,0,0,0,0,0,0,0,0,0,0,0,0.1654,0.1655,0,0.1733,0.1733,0.1734,0.1793,0.1794,0.1794,0.1795,0.1875,0.1877,0.1878,0,0,0,0,0,0,0,0,0,0,0,0,0,0.1584,0.1585,0.1653,0.1655,0.1656,0.1733,0.1733,0.1734,0.1793,0.1794,0.1795,0.1796,0.1875,0.1877,0.1878,0,0,0,0,0,0,0,0,0,0,0,0,0,0.1631,0.1585,0.1653,0.1697,0.1702,0.1732,0.1733,0.1734,0.1792,0.1794,0.1795,0.1796,0.1874,0.1876,0.1878,0.1867,0,0,0.1885,0.1886,0,0,0,0,0,0,0,0,0.1628,0.1633,0.1689,0.1694,0.1699,0.1757,0.1739,0.178,0.1792,0.1755,0.1795,0.1797,0.1837,0.1842,0.185,0.1871,0.1874,0.1885,0.1886,0.1887,0.1888,0,0,0,0,0,0,0,0.1625,0.163,0.1682,0.169,0.1697,0.1723,0.1731,0.1747,0.1786,0.1758,0.1763,0.1777,0.184,0.1848,0.1852,0.1875,0.1885,0.1887,0.1888,0.1889,0.1998,0.2,0,0,0,0,0,0,0.1618,0.1626,0.1679,0.1684,0.167,0.1724,0.1732,0.1735,0.1786,0.1795,0.1776,0.1779,0.1844,0.185,0.1855,0.1938,0.1887,0.1889,0.189,0.1996,0.1998,0.2,0,0,0,0,0,0,0.1616,0.1622,0.1676,0.1661,0.167,0.1724,0.1726,0.1736,0.1786,0.18,0.1809,0.1821,0.1845,0.1852,0.1906,0.1938,0.189,0.1892,0.1994,0.1997,0.1999,0.2044,0,0,0,0,0,0,0.1613,0.162,0.1643,0.166,0.1671,0.1714,0.1726,0.1736,0.1791,0.1797,0.1841,0.1847,0.1846,0.1903,0.1908,0.194,0.1893,0.1992,0.1996,0.1999,0.204,0.2048,0.2054,0,0,0,0,0,0.161,0.1628,0.1643,0.1651,0.1692,0.1715,0.1723,0.1763,0.1792,0.1813,0.1852,0.1848,0.1927,0.1906,0.1912,0.1945,0.1991,0.1995,0.1998,0.2037,0.2046,0.2054,0,0,0,0,0,0,0.1625,0.1636,0.1653,0.1679,0.1706,0.1727,0.1759,0.1786,0.1833,0.1854,0.1868,0.1877,0.1936,0.1936,0.1914,0.1987,0.1959,0.1964,0.1986,0.1995,0.2001,0.2013,0.1895,0,0,0,0,0,0.1634,0.1639,0.1665,0.1688,0.1706,0.1741,0.1767,0.1793,0.1827,0.1851,0.1877,0.1913,0.1947,0.197,0.1992,0.2031,0.2044,0.2058,0.2065,0.207,0.2084,0.2123,0.2135,0.2012,0.2012,0.2012,0,0,0.1644,0.1654,0.166,0.169,0.1716,0.1742,0.176,0.1805,0.1839,0.1851,0.1912,0.194,0.1965,0.201,0.2036,0.202,0.2114,0.2075,0.2079,0.2091,0.2128,0.214,0.2151,0.2015,0.2015,0.2014,0,0,0.1651,0.168,0.1686,0.1708,0.1753,0.1772,0.1794,0.1834,0.1872,0.1929,0.1949,0.2002,0.2047,0.2069,0.2087,0.2147,0.2149,0.2157,0.22,0.2237,0.2247,0.2256,0.2294,0.2306,0.2158,0.2158,0.2158,0,0.1678,0.1679,0.1697,0.1714,0.1741,0.1789,0.1815,0.1854,0.191,0.1946,0.1959,0.2054,0.2076,0.2136,0.2162,0.2163,0.2185,0.2163,0.2245,0.2255,0.2263,0.23,0.2312,0.2161,0.2161,0.216,0.216,0,0.1678,0.1699,0.1709,0.1737,0.1769,0.1801,0.185,0.1897,0.1954,0.1996,0.2083,0.2118,0.2176,0.219,0.2201,0.2274,0.2272,0.2249,0.2221,0.2278,0.2313,0.2326,0.2165,0.2164,0.2163,0.2162,0,0,0.1686,0.1706,0.1715,0.1731,0.1787,0.181,0.1872,0.1939,0.2001,0.2066,0.2143,0.2211,0.225,0.2274,0.2291,0.2329,0.2413,0.2325,0.2326,0.2358,0.2508,0.2341,0.2339,0.2406,0.2408,0.241,0.251,0,0.1691,0.1708,0.1726,0.1765,0.178,0.1839,0.1889,0.1962,0.2041,0.2126,0.2193,0.228,0.2275,0.2327,0.2362,0.2409,0.2448,0.2389,0.2453,0.2456,0.2296,0.2348,0.2417,0.252,0.2522,0.2524,0.2526,0,0.1686,0.1694,0.1726,0.1767,0.1787,0.1832,0.1931,0.1986,0.2109,0.2175,0.227,0.2338,0.2433,0.2414,0.2516,0.2482,0.2508,0.2528,0.2532,0.2369,0.2311,0.2451,0.2548,0.2547,0.2545,0.2543,0.2542,0,0.1658,0.1696,0.1721,0.1738,0.1799,0.1847,0.19,0.2013,0.2076,0.2231,0.2307,0.2414,0.2496,0.2542,0.2604,0.2578,0.27,0.2658,0.2529,0.2519,0.2619,0.2608,0.2723,0.2723,0.2723,0.2723,0.2722,0,0.1633,0.1658,0.1719,0.1733,0.1781,0.1842,0.1932,0.2,0.2126,0.2207,0.2341,0.2418,0.2537,0.2621,0.2642,0.2625,0.2731,0.255,0.2532,0.2637,0.2627,0.2629,0.2616,0.2727,0.2726,0.2725,0.2724,0,0.1588,0.1628,0.1664,0.1741,0.1766,0.1812,0.1926,0.1982,0.2122,0.2234,0.2296,0.246,0.2562,0.2651,0.2745,0.2663,0.2673,0.264,0.2772,0.2758,0.246,0.245,0.2498,0.2493,0.2489,0.2485,0.2482,0,0.1556,0.157,0.1659,0.1678,0.172,0.1795,0.1831,0.1961,0.2025,0.2233,0.2269,0.2443,0.2533,0.2537,0.2627,0.2654,0.2617,0.2605,0.2503,0.2459,0.2438,0.2434,0.2429,0.2475,0.2474,0.2473,0.2472,0,0.1497,0.1558,0.1589,0.162,0.1667,0.1702,0.1778,0.1812,0.1968,0.212,0.2204,0.2272,0.2376,0.2438,0.2483,0.249,0.2599,0.2559,0.2566,0.247,0.2432,0.2415,0.2415,0.2457,0.2459,0.2461,0.2461,0,0.1466,0.1477,0.1525,0.1542,0.1588,0.1584,0.164,0.1702,0.1777,0.2003,0.2028,0.2202,0.2355,0.2354,0.2394,0.2392,0.2342,0.2249,0.2272,0.229,0.217,0.2088,0.2001,0,0,0,0,0,0.1413,0.1406,0.1422,0.1431,0.1473,0.1496,0.1581,0.1648,0.1812,0.1816,0.1917,0.2006,0.2074,0.2163,0.2118,0.2288,0.2345,0.2223,0.2247,0.2374,0.2392,0.2267,0,0,0,0,0,0,0.1372,0.1395,0.1389,0.1332,0.1321,0.1344,0.1397,0.15,0.1516,0.1698,0.175,0.1885,0.1984,0.209,0.2086,0.2108,0.2079,0.2328,0.2323,0.2365,0.238,0.2394,0.2272,0,0,0,0,0]},{"header":{"parameterUnit":"m.s-1","parameterCategory":2,"la1":30.2991,"la2":30.254,"lo1":-89.0895,"lo2":-89.0444,"dy":0.0017,"dx":0.0017,"nx":28,"ny":28,"refTime":"2025-03-22T03:00:00:Z","depth":"4","parameterNumber":3,"parameterNumberName":"V-component_of_CURRENTS"},"data":[0,0,0,0,0,0,0,0,0,0,0,0,0,0,0,0,0,0,0,0,0,0,0,0,0,0,0,0,0,0,0,0,0,0,0,0,0,0,0,0,0,0,0,0,0,0,0,0,0,0,0,0,0,0,0,0,0,0,0.0117,0.0116,0,0.008,0.0079,0.0079,0.0054,0.0054,0.0054,0.0054,0.0015,0.0014,0.0013,0,0,0,0,0,0,0,0,0,0,0,0,0,0.014,0.014,0.0117,0.0116,0.0116,0.008,0.0079,0.0079,0.0054,0.0054,0.0054,0.0054,0.0015,0.0014,0.0013,0,0,0,0,0,0,0,0,0,0,0,0,0,0.0119,0.014,0.0117,0.0099,0.0098,0.008,0.0079,0.0079,0.0054,0.0054,0.0054,0.0054,0.0015,0.0014,0.0013,0.0009,0,0,0.0009,0.0008,0,0,0,0,0,0,0,0,0.012,0.0118,0.0102,0.0101,0.0098,0.0072,0.0074,0.0055,0.0054,0.007,0.0054,0.0053,0.0034,0.0031,0.0024,0.0007,0.0005,0.0009,0.0008,0.0007,0.0007,0,0,0,0,0,0,0,0.0122,0.012,0.0102,0.0102,0.01,0.0085,0.0082,0.007,0.0053,0.0069,0.0067,0.0064,0.0033,0.0026,0.0023,0.0004,0.0009,0.0007,0.0007,0.0006,-0.0018,-0.0017,0,0,0,0,0,0,0.0129,0.0121,0.0103,0.0101,0.011,0.0085,0.0081,0.008,0.0053,0.0049,0.0064,0.0063,0.0028,0.0025,0.0022,0.0029,0.0007,0.0006,0.0005,-0.0018,-0.0018,-0.0017,0,0,0,0,0,0,0.013,0.0128,0.0104,0.011,0.0106,0.0085,0.0084,0.008,0.0075,0.005,0.0046,0.0064,0.0028,0.0023,0.0017,0.0026,0.0005,0.0004,-0.0018,-0.0018,-0.0017,0.0034,0,0,0,0,0,0,0.0131,0.0128,0.0131,0.0111,0.0106,0.0101,0.0084,0.0079,0.0074,0.0072,0.0049,0.0045,0.0027,0.0019,0.0016,0.0024,0.0003,-0.0018,-0.0018,-0.0018,0.0032,0.0036,0.0039,0,0,0,0,0,0.0132,0.0138,0.0132,0.0129,0.011,0.0102,0.0099,0.0082,0.0074,0.0077,0.0061,0.0046,0.0019,0.0019,0.0014,0.0023,-0.0018,-0.0018,-0.0018,0.003,0.0035,0.0039,0,0,0,0,0,0,0.0154,0.0136,0.0128,0.013,0.012,0.0098,0.0098,0.0087,0.0076,0.0076,0.0051,0.0046,0.0043,0.0025,0.0025,0.0015,-0.0003,-0.0004,0.0034,0.0039,0.0042,0.0055,0.0002,0,0,0,0,0,0.016,0.016,0.0141,0.0145,0.014,0.012,0.0115,0.0105,0.0092,0.0087,0.007,0.0052,0.004,0.0034,0.0019,0.0017,-0.0009,0.0017,0.0021,0.0024,0.0031,-0.0005,-0.0004,-0.0016,-0.0016,-0.0016,0,0,0.0171,0.0161,0.0162,0.015,0.0139,0.0142,0.0117,0.0114,0.012,0.0085,0.0088,0.0066,0.0042,0.0039,0.0036,0.0026,0.0014,0.0025,0.0028,0.0033,-0.0004,-0.0003,-0.0002,-0.0016,-0.0016,-0.0016,0,0,0.0195,0.0184,0.0191,0.0185,0.0173,0.0162,0.0164,0.0145,0.014,0.0138,0.0115,0.0099,0.0081,0.0065,0.0055,0.0069,0.0035,0.0063,0.0093,0.0058,0.0059,0.006,0.0031,0.0028,0.0065,0.0065,0.0065,0,0.0211,0.0216,0.0193,0.02,0.0202,0.0174,0.0188,0.0179,0.0163,0.0164,0.0147,0.0115,0.0093,0.0088,0.0092,0.0078,0.0054,0.0081,0.0064,0.0064,0.0063,0.0033,0.0029,0.0068,0.0067,0.0067,0.0067,0,0.0238,0.0244,0.0249,0.0248,0.0247,0.0255,0.024,0.0239,0.0227,0.0215,0.0205,0.0168,0.015,0.0137,0.0121,0.011,0.0093,0.0073,0.0055,0.0068,0.0035,0.003,0.0071,0.007,0.007,0.0069,0,0,0.027,0.0269,0.0273,0.0284,0.0275,0.0281,0.0289,0.0291,0.0304,0.0272,0.028,0.0245,0.022,0.0206,0.0175,0.0143,0.0117,0.0112,0.0109,0.0089,0.0044,0.0036,0.003,0.0093,0.0093,0.0092,0.0024,0,0.03,0.0327,0.0317,0.035,0.0361,0.0345,0.0357,0.0355,0.0346,0.0345,0.0299,0.0293,0.0248,0.0242,0.0202,0.0141,0.0107,0.0138,0.0031,0.0028,0.0023,0.0025,0.0091,0.002,0.0019,0.0018,0.0017,0,0.033,0.0344,0.0379,0.0401,0.0406,0.0423,0.0442,0.0452,0.044,0.0432,0.0408,0.0371,0.0328,0.0284,0.0179,0.0201,0.0132,0.0075,0.007,0.0043,0.0011,0.0003,0.0008,0.0009,0.001,0.001,0.0011,0,0.0362,0.039,0.0423,0.043,0.0446,0.0466,0.0479,0.0481,0.0507,0.0493,0.0501,0.0434,0.041,0.0308,0.0192,0.0187,0.0069,0.0044,-0.0032,-0.0033,-0.0028,-0.0028,-0.0032,-0.0032,-0.0032,-0.0032,-0.0032,0,0.0392,0.0421,0.0445,0.0464,0.0512,0.051,0.0567,0.0564,0.0582,0.0617,0.0553,0.0555,0.0415,0.033,0.0213,0.008,0.0082,-0.0024,-0.0051,-0.0005,-0.0001,-0.0031,-0.003,-0.0034,-0.0034,-0.0033,-0.0033,0,0.0416,0.043,0.0476,0.0512,0.0528,0.0567,0.0633,0.0674,0.0676,0.0716,0.0717,0.0651,0.0539,0.0389,0.0224,0.012,-0.0015,-0.0064,0.0005,-0.0018,-0.01,-0.0095,-0.0153,-0.0154,-0.0155,-0.0156,-0.0156,0,0.0426,0.0452,0.0517,0.0556,0.0577,0.064,0.0687,0.0718,0.0768,0.0774,0.0795,0.0707,0.0639,0.0411,0.024,0.0011,-0.0027,-0.01,-0.011,-0.0091,-0.0112,-0.0107,-0.0101,-0.0157,-0.0157,-0.0158,-0.0158,0,0.0448,0.0478,0.0519,0.0598,0.0661,0.0739,0.0808,0.0851,0.0885,0.0888,0.0869,0.0745,0.0618,0.0426,0.0247,0.008,-0.0056,-0.0109,-0.0109,-0.0118,-0.0097,-0.0115,-0.0109,-0.016,-0.016,-0.016,-0.016,0,0.0468,0.0505,0.0566,0.0638,0.0724,0.0809,0.0846,0.09,0.0943,0.0942,0.0934,0.0787,0.0705,0.0463,0.0298,0.0131,0.0082,0.0018,0.0011,0.0011,0.0072,0.0124,0.0108,0,0,0,0,0,0.0479,0.0526,0.0598,0.0685,0.0776,0.0829,0.0914,0.0946,0.0977,0.0974,0.0958,0.0838,0.0596,0.0498,0.0331,0.0266,0.004,0.0062,-0.0039,-0.0174,-0.0171,-0.0131,0,0,0,0,0,0,0.0488,0.0554,0.0597,0.0714,0.0784,0.0889,0.0949,0.0969,0.0973,0.0972,0.0857,0.0789,0.0564,0.0696,0.0329,0.0277,0.0187,-0.0049,-0.0053,-0.0176,-0.0173,-0.0171,-0.0128,0,0,0,0,0]}]]